Lapse_Rate
6.7 7.8 8.2 8.5 8.6 8.9 8.6 7.9 8.0 7.9 7.6 7.9 7.9 7.6 7.1 7.6 7.8 7.5 6.6 5.5 5.5 4.7 4.9 5.2 5.4 5.5 5.2 4.9 4.6 4.9 5.1 5.1 5.6 5.2 4.9 5.0 6.5 6.4 6.0 6.1 6.5 6.9 7.0
7.6 7.3 6.6 7.3 8.1 8.9 8.7 8.4 7.4 6.6 6.2 7.4 6.5 7.6 7.3 7.4 7.3 8.0 8.5 5.9 5.4 5.1 4.8 5.3 5.3 5.5 5.5 5.2 4.7 4.4 5.0 5.1 5.2 5.8 5.5 5.1 5.3 6.4 5.9 6.2 6.2 6.5 6.8
8.1 7.6 6.8 6.8 8.0 8.8 8.6 8.3 7.6 7.5 5.7 6.4 6.0 6.1 6.6 6.8 6.9 7.1 7.4 7.8 5.6 5.2 5.0 5.0 5.3 5.4 5.3 5.2 5.0 4.8 4.8 5.1 5.4 5.4 5.3 5.2 5.1 5.6 5.4 6.0 6.3 6.4 6.5
9.2 8.5 7.0 6.3 8.4 8.3 7.9 6.4 6.1 5.9 5.8 5.8 5.6 5.3 5.4 5.9 6.0 6.4 7.2 8.0 7.1 5.8 4.8 5.2 5.2 5.1 5.1 5.3 5.1 5.2 5.2 5.2 5.5 5.9 5.6 5.2 4.8 4.6 4.6 5.3 5.7 6.3 6.3
8.5 7.9 7.2 7.3 8.0 7.2 6.2 6.2 6.6 5.8 5.7 5.7 6.3 6.0 5.2 5.0 5.2 7.4 6.5 6.7 7.4 7.6 5.6 5.0 5.3 5.2 5.1 5.4 5.5 5.4 5.4 5.5 5.2 5.4 6.1 6.2 5.8 5.2 4.8 5.3 5.7 5.4 5.9
8.7 8.2 8.0 7.4 7.9 6.4 6.2 5.9 5.8 5.7 5.7 6.1 8.2 8.2 6.3 6.6 6.1 4.8 5.6 6.8 6.8 7.1 7.1 6.3 4.9 5.1 5.1 5.2 5.6 5.8 5.6 5.5 5.7 5.7 5.4 5.8 6.4 5.8 5.1 4.5 4.4 4.9 5.3
8.3 7.6 7.6 7.3 7.0 6.1 6.1 6.1 5.9 6.0 6.5 6.1 6.7 6.8 6.6 6.4 5.6 5.8 6.3 6.6 6.3 6.5 7.0 6.5 4.8 4.9 5.1 5.4 5.6 6.0 6.1 5.7 5.6 5.7 5.9 5.9 5.9 5.8 6.2 5.5 5.4 4.5 5.3
8.5 8.9 7.4 6.7 6.8 6.0 5.6 6.1 5.9 5.9 6.1 5.9 6.3 6.6 6.6 7.0 6.2 6.6 6.7 6.6 6.9 7.1 6.8 7.1 6.5 6.3 6.8 5.2 5.2 5.9 6.1 6.0 5.7 5.3 5.6 6.1 6.2 5.9 5.8 6.1 5.8 5.7 5.7
9.0 9.0 8.3 7.5 6.7 6.0 6.1 6.1 6.3 6.1 5.8 5.7 5.5 6.1 6.5 6.5 6.8 6.7 6.8 7.1 5.0 5.8 4.5 6.8 8.9 8.0 7.2 6.2 6.3 6.3 5.8 5.5 5.1 5.3 5.6 5.8 6.3 6.3 6.2 6.2 6.5 6.3 5.9
8.3 8.8 8.5 7.9 7.0 6.7 6.3 6.7 7.7 6.0 5.9 6.3 6.2 7.1 5.1 5.4 6.6 6.6 6.2 6.3 6.3 5.8 4.3 5.4 5.1 7.6 7.7 6.8 6.8 6.8 6.2 5.2 4.7 5.0 5.6 6.1 6.0 6.7 7.0 6.8 6.5 6.7 6.4
8.2 8.1 8.1 7.2 6.1 6.0 6.2 6.6 6.8 6.3 6.2 5.7 6.0 5.8 4.9 4.8 5.3 6.3 6.7 4.9 4.4 3.8 4.5 4.2 4.9 5.7 6.4 8.4 8.2 7.1 6.7 5.6 4.8 4.8 5.5 6.1 6.3 6.4 7.0 7.7 7.5 6.9 6.7
6.3 7.9 8.0 7.6 7.7 7.0 6.9 6.8 6.1 5.6 4.5 4.8 5.2 5.7 5.7 6.8 7.5 7.8 7.8 6.0 6.4 4.9 4.1 4.3 4.7 5.2 5.7 7.8 8.7 7.4 5.8 5.5 5.0 4.8 4.7 5.5 6.2 6.5 7.0 8.0 8.4 8.1 7.5
7.5 7.2 7.9 7.5 7.4 8.1 8.1 7.6 6.8 6.6 6.3 5.7 6.0 6.3 6.3 6.3 6.4 7.5 7.0 7.0 7.1 6.9 5.0 4.6 5.6 6.3 7.0 7.1 6.3 8.8 7.5 6.0 5.7 5.4 5.0 5.0 5.7 6.0 7.0 7.8 8.6 9.1 8.4
7.5 8.2 7.7 8.3 8.0 7.2 7.0 6.8 6.4 6.4 6.3 6.2 7.9 7.9 7.3 6.4 6.5 6.3 6.7 6.5 6.2 6.1 6.4 6.5 6.0 6.3 6.8 7.1 7.7 8.2 7.9 7.1 6.5 5.8 5.8 5.9 6.1 5.6 5.5 5.8 6.3 6.9 7.4
8.7 7.6 7.6 7.1 7.9 7.5 7.2 6.4 6.0 5.9 5.9 6.1 7.0 6.7 6.7 6.6 6.5 6.7 6.4 7.0 7.0 6.9 6.8 7.0 7.4 7.3 7.2 7.1 7.6 8.1 8.8 7.9 7.0 6.5 6.5 6.6 6.6 6.2 5.8 5.8 5.8 5.9 6.1
7.8 8.1 8.0 7.7 8.2 8.2 8.1 7.7 7.1 7.2 7.0 7.0 7.4 7.4 6.8 7.8 8.0 7.9 7.2 6.7 6.7 6.9 6.7 7.4 8.1 8.0 9.1 9.8 9.6 9.0 9.9 8.5 7.0 7.3 7.4 7.2 7.0 6.8 6.5 6.0 5.8 5.7 5.5
7.3 7.8 8.2 8.2 8.7 8.8 7.0 6.7 6.6 7.0 7.5 7.1 7.4 8.2 8.2 8.2 8.2 8.5 8.7 8.5 7.7 6.7 6.6 7.4 7.6 7.8 7.5 7.4 8.2 9.4 10.9 8.2 6.9 7.3 7.7 7.9 7.5 6.9 7.0 6.7 6.4 6.1 5.8
8.6 8.5 8.5 8.4 8.2 7.9 7.2 6.9 7.1 7.5 7.7 7.9 8.5 8.5 8.4 9.3 8.4 8.5 9.2 9.0 7.8 7.3 6.7 6.7 6.8 7.2 6.8 7.1 7.2 7.3 8.7 9.7 8.4 7.4 7.6 7.3 7.5 7.6 7.1 7.0 6.8 6.7 6.4
8.2 8.2 8.3 8.0 8.1 8.0 8.0 7.7 7.7 7.9 7.7 7.7 7.9 8.1 8.4 7.9 7.3 7.3 7.5 7.5 7.8 8.6 7.5 7.5 6.8 6.8 6.7 6.7 7.2 7.4 7.8 7.0 8.5 9.4 7.8 7.2 7.1 7.4 7.5 6.9 7.0 6.8 6.5
8.2 8.2 8.2 8.2 8.1 8.2 8.5 7.5 7.8 7.0 6.9 7.3 7.3 7.4 7.5 8.2 7.9 7.3 7.7 7.0 7.5 6.3 6.7 7.1 7.3 7.4 6.9 7.0 6.8 6.6 5.8 6.4 6.4 8.9 9.2 8.4 6.8 7.2 7.8 7.9 7.5 7.3 6.8
8.4 8.2 8.2 8.0 7.9 8.3 6.3 5.4 6.0 6.4 6.7 7.0 7.0 7.8 8.3 8.5 8.9 7.8 8.6 7.8 7.2 6.7 6.0 6.6 7.1 7.4 7.6 6.9 6.6 6.8 6.6 6.1 6.0 6.3 6.0 5.5 5.8 6.3 6.6 6.9 7.3 7.3 6.8
8.1 7.9 7.8 7.9 7.6 8.8 5.0 4.9 5.0 5.3 6.9 7.3 7.2 7.6 8.3 8.9 8.6 8.4 8.4 8.7 7.5 6.5 7.1 7.3 7.6 7.6 7.7 7.5 7.3 6.6 5.9 5.6 5.7 5.9 5.3 4.8 5.9 5.4 6.5 8.6 9.1 8.4 7.6
7.4 7.4 7.4 7.7 7.6 7.1 5.6 5.7 5.8 6.2 7.0 7.5 8.2 8.5 8.9 9.9 8.8 9.2 8.3 7.9 8.1 8.0 7.9 7.4 7.8 7.6 7.6 7.1 6.8 6.6 6.1 6.2 6.3 6.3 5.9 5.4 5.0 4.8 6.4 8.1 7.5 8.2 7.8
7.3 7.1 7.2 7.7 7.4 8.0 7.3 7.5 6.8 6.4 7.0 7.7 8.4 8.3 8.2 8.3 8.3 8.4 8.1 7.0 7.4 7.5 7.9 8.3 7.7 7.3 7.8 7.8 7.9 7.7 7.4 7.4 6.0 5.9 6.4 6.3 5.2 4.5 5.0 6.7 8.2 7.9 7.5
7.1 7.3 7.6 6.7 6.4 6.8 8.1 7.6 6.7 6.3 7.2 7.6 8.2 8.3 8.5 8.3 8.7 9.1 8.1 7.3 7.0 7.5 8.8 8.9 9.1 8.6 8.5 8.6 8.4 7.6 7.0 7.1 6.7 6.7 6.3 6.8 5.3 4.5 3.6 3.0 6.7 8.0 8.0
7.8 6.8 6.3 6.2 7.1 6.8 8.2 8.1 7.3 6.4 6.9 7.7 8.0 8.3 8.8 8.8 7.1 6.9 6.6 7.0 7.0 7.6 7.9 7.5 6.8 7.2 8.0 7.8 7.7 7.3 6.8 6.7 6.7 6.6 6.9 7.7 7.5 6.5 6.3 3.7 4.8 6.3 6.4
Wind_Speed
3 5 3 6 6 8 6 4 6 6 6 7 10 8 8 12 13 12 6 10 9 8 10 13 14 13 12 10 7 6 4 6 9 11 10 15 19 19 20 23 24 24 23
2 3 5 5 8 8 6 6 7 5 5 7 6 10 10 12 13 12 12 14 13 13 12 12 13 13 11 10 8 7 6 4 5 10 16 18 17 20 18 21 23 24 23
5 5 4 5 8 9 7 11 9 8 4 6 7 7 10 12 13 15 15 9 16 15 15 13 14 13 12 11 8 6 6 5 5 6 8 14 19 15 16 20 21 23 24
2 4 4 5 11 11 9 4 4 5 5 4 4 5 6 9 13 16 17 17 13 16 18 18 16 16 15 15 13 9 7 6 7 7 5 7 7 10 12 17 23 24 24
9 11 8 10 14 9 5 5 6 5 4 4 6 5 5 5 6 11 11 15 19 17 17 22 24 21 18 16 15 14 12 9 6 5 7 9 11 14 14 13 17 20 22
12 11 10 10 12 5 5 5 5 5 5 6 9 9 6 7 7 6 8 13 17 20 20 22 21 19 21 18 17 15 15 13 11 10 8 5 6 7 16 17 18 16 21
15 14 10 9 11 6 6 6 6 7 6 5 7 7 6 7 7 8 8 9 9 17 24 20 22 20 20 24 21 20 17 15 13 11 10 10 6 8 8 9 14 16 19
16 14 9 5 6 5 7 7 6 5 6 7 8 9 11 10 6 7 9 9 13 10 13 21 18 21 20 19 20 22 20 18 15 13 11 10 10 10 11 9 10 10 17
11 13 10 7 5 4 5 6 6 7 5 7 8 5 10 11 10 6 8 10 9 6 2 9 19 20 17 20 20 20 20 18 16 14 13 12 11 11 12 11 10 11 11
11 13 13 11 8 5 6 5 7 5 5 6 5 8 10 8 4 8 4 8 10 9 7 4 4 16 16 16 17 16 19 14 12 12 13 14 13 13 12 12 11 10 11
13 14 14 11 6 5 6 7 6 6 4 4 3 4 4 8 8 4 8 7 9 10 10 6 8 5 19 14 4 13 14 11 10 8 12 15 16 15 14 14 13 11 10
5 9 12 10 9 6 6 6 5 7 5 5 4 5 3 2 6 7 8 9 7 6 9 6 6 6 11 16 14 8 15 12 7 3 5 10 15 17 17 16 16 15 13
4 6 7 6 3 7 7 6 6 4 3 3 3 2 3 3 3 7 7 9 8 7 4 4 2 5 8 8 12 9 12 13 10 5 4 7 7 7 12 14 16 17 16
4 8 9 10 9 11 9 10 5 4 5 5 6 4 4 4 3 3 4 4 7 4 5 9 3 3 8 13 14 9 13 16 14 11 6 4 3 1 3 2 3 5 6
6 8 9 8 9 8 8 7 4 6 5 5 7 6 5 4 4 4 4 5 6 6 7 6 3 6 5 13 17 16 16 20 19 14 9 5 4 3 3 4 3 4 5
7 7 7 7 9 10 10 10 7 7 7 4 5 6 8 7 8 5 5 6 6 6 9 4 7 6 9 7 15 17 18 17 16 16 14 10 9 8 8 6 3 3 3
7 8 8 7 9 9 5 4 7 8 7 7 6 7 8 10 8 8 7 8 7 4 7 6 5 5 4 5 6 14 9 7 16 23 21 19 18 16 14 11 9 7 6
6 7 6 7 7 7 6 7 8 8 9 9 10 10 11 8 9 7 6 9 6 5 5 9 4 4 5 6 5 5 4 8 10 21 28 26 25 23 20 18 15 13 11
6 6 6 7 7 7 7 6 6 6 7 8 10 12 12 9 7 5 6 5 5 6 7 6 5 3 3 4 5 4 5 5 8 9 12 22 24 21 18 20 17 15 15
6 6 6 6 6 7 8 7 8 8 8 8 10 13 14 13 11 9 7 5 5 5 7 8 8 7 4 5 4 4 5 3 3 7 11 7 19 23 25 25 22 20 20
6 6 7 6 7 6 6 6 7 8 9 10 10 12 13 16 21 8 6 5 5 3 4 7 8 8 7 5 4 4 4 3 3 2 2 3 2 5 14 23 22 25 22
5 6 6 6 6 6 8 8 9 7 10 11 12 13 13 18 15 13 8 8 8 6 8 7 7 8 9 8 6 5 4 4 3 4 4 4 6 4 4 3 15 6 5
6 6 6 5 4 4 5 8 8 6 8 10 13 12 12 10 14 10 11 13 7 8 10 7 10 10 10 10 9 8 5 4 3 4 4 3 3 4 4 9 8 5 5
6 6 5 4 4 4 9 8 6 6 7 9 11 13 13 12 9 12 7 7 8 7 7 6 9 11 10 10 7 6 6 6 4 4 4 5 3 4 3 7 10 15 7
6 3 5 6 6 6 11 9 8 5 6 8 11 12 12 12 17 20 10 8 8 9 13 20 20 20 21 21 18 8 7 7 6 4 3 4 3 3 3 3 11 16 19
5 4 3 4 7 7 8 10 9 3 7 8 10 11 17 14 9 11 6 7 7 8 7 7 7 8 12 11 18 10 8 8 7 6 7 6 3 2 3 3 4 12 11
Wind_Direction
62 353 332 324 322 302 303 331 321 305 329 291 251 241 279 280 265 277 242 197 192 213 247 256 247 238 228 222 216 213 209 216 216 221 220 238 241 232 222 222 220 220 218
17 341 345 322 314 318 339 314 268 256 248 244 259 243 235 255 283 279 254 208 204 204 214 238 247 246 240 234 227 222 220 206 197 210 215 221 224 229 224 226 219 219 219
354 345 317 291 287 304 317 292 275 261 247 234 231 234 221 228 229 251 268 223 210 221 215 218 230 225 216 218 217 217 220 224 233 219 213 215 221 216 221 225 223 219 218
305 299 311 313 309 313 297 289 289 278 274 264 257 244 232 218 217 217 228 232 205 207 216 214 218 215 213 205 200 202 209 224 233 241 234 242 258 232 230 227 219 219 220
25 12 336 312 318 311 292 285 286 264 267 295 291 278 268 241 233 226 216 218 218 216 197 210 208 208 213 212 207 202 203 207 213 234 245 237 220 222 220 226 229 225 220
7 342 319 307 304 298 295 302 316 319 302 288 285 288 283 269 257 235 231 219 213 218 210 202 207 209 207 210 219 221 213 210 216 221 224 253 223 216 224 229 229 233 238
8 348 320 329 334 323 317 320 323 307 300 300 301 294 297 294 282 261 257 233 219 212 213 200 189 200 209 211 211 220 222 217 218 224 232 226 235 201 240 237 237 224 245
359 326 307 302 335 343 333 323 327 326 322 322 314 309 304 296 286 288 279 260 249 239 216 209 194 201 202 199 209 213 214 216 209 214 231 247 238 211 210 235 240 242 241
303 306 328 348 339 350 330 315 309 319 329 324 316 313 311 299 308 307 298 307 316 286 40 305 229 223 197 186 201 206 201 213 211 212 215 226 238 243 210 220 232 240 240
322 348 347 352 334 342 316 310 332 320 327 313 341 9 6 7 341 313 341 334 335 345 301 301 325 301 201 162 155 191 204 202 229 226 226 224 226 237 235 229 238 246 241
357 352 355 341 348 333 325 306 310 330 6 13 358 5 356 355 358 322 317 347 338 347 358 9 342 9 333 355 8 162 179 196 222 250 246 230 229 226 235 237 237 244 252
351 338 344 337 337 345 328 333 36 46 37 29 14 12 17 345 323 310 308 310 301 306 330 10 345 344 351 324 331 170 180 177 179 224 299 280 247 237 234 233 235 236 244
336 329 333 331 328 321 327 7 1 84 67 62 34 357 321 301 262 287 292 291 294 307 291 297 354 297 296 282 307 217 201 175 168 192 272 284 286 277 250 239 234 233 237
323 313 345 337 3 29 15 21 9 352 4 347 318 286 270 264 268 245 233 266 297 287 288 274 289 275 285 280 268 234 200 184 178 180 199 254 254 312 318 277 204 208 217
345 7 2 352 348 3 12 14 346 326 338 319 292 274 266 257 249 248 242 233 256 292 295 311 312 274 259 299 283 266 205 202 190 182 180 192 253 289 294 290 265 233 233
344 335 356 355 345 352 351 335 324 312 317 310 294 312 300 296 307 295 260 237 240 251 276 283 283 267 277 237 263 245 252 191 183 184 191 200 222 246 270 270 271 297 294
351 346 335 325 316 312 317 311 281 293 307 301 293 284 289 290 289 302 298 299 285 248 263 281 264 285 311 300 254 255 286 194 187 198 203 217 225 223 228 238 256 276 289
320 325 315 306 285 279 257 253 269 272 270 279 298 296 287 276 280 282 289 277 276 281 276 285 284 297 293 298 298 298 283 258 213 215 217 223 227 224 224 229 246 261 275
296 311 326 316 318 307 300 299 305 328 2 342 327 322 307 280 277 268 272 285 306 321 329 314 295 299 308 316 310 315 295 304 300 280 218 225 232 233 236 239 238 248 265
322 320 319 318 315 323 334 10 352 347 339 332 326 318 311 305 289 284 316 327 318 331 321 316 313 310 309 304 288 286 292 291 282 296 293 248 221 225 228 237 242 243 251
319 334 328 320 318 318 38 17 1 346 332 321 312 302 298 301 306 268 259 268 298 304 309 299 298 305 300 301 296 334 327 331 322 332 331 336 338 234 237 227 229 244 242
330 313 309 311 323 352 75 42 23 340 330 321 308 299 294 296 296 312 281 250 228 236 258 265 274 281 289 301 326 331 334 343 326 331 19 325 347 323 328 278 242 253 21
308 301 298 305 348 40 70 36 3 325 316 318 309 308 309 311 325 321 356 345 331 284 277 279 273 271 276 282 294 300 301 300 285 307 346 306 322 298 284 300 141 131 349
301 296 307 351 350 358 343 347 345 311 317 310 313 313 312 313 317 317 310 293 297 291 269 250 243 254 262 270 276 295 305 303 295 282 271 273 269 268 277 289 299 300 264
298 328 13 4 348 331 314 352 307 311 303 309 303 299 298 304 303 304 300 288 282 277 275 269 271 274 277 273 268 269 265 271 280 279 277 251 253 260 254 269 266 266 267
338 55 22 335 324 315 341 345 339 314 311 314 312 307 305 311 12 358 338 302 288 279 288 298 299 299 291 265 260 249 245 243 253 269 251 262 275 298 281 230 233 253 257